Voltar ao catálogo

STARLINK-30930

AtivoComunicaçõesVLEO
NORAD 58385·PAYLOAD·🇺🇸 United States

Lançado Nov 20, 2023 de Vandenberg Space Force Base

Loading…

Próximas Passagens (próximas 24 horas)

TLE

AtualizadoSource: CelesTrak SupGP

Época: Sep 15, 2026, 02:53 UTC

1 58385C 23178M   26258.12062500 -.00066165  00000+0 -19549-2 0  2582
2 58385  53.1588 196.6430 0001379  86.8020  79.3204 15.34423110    14

Acompanhe STARLINK-30930 em tempo real com AllMySat

Download on the App Store